[[{"header":{"parameterUnit":"m.s-1","parameterCategory":1,"la1":30.2991,"la2":30.254,"lo1":-89.0895,"lo2":-89.0444,"dy":0.0017,"dx":0.0017,"nx":28,"ny":28,"refTime":"2024-10-14T09:00:00:Z","depth":0,"parameterNumber":2,"parameterNumberName":"U-component_of_WINDS"},"data":[0,0,0,0,0,0,0,0,0,0,0,0,0,0,0,0,0,0,0,0,0,0,0,0,0,0,0,0,0,0,0,0,0,0,0,0,0,0,0,0,0,0,0,0,0,0,0,0,0,0,0,0,0,0,0,0,0,0,-1.5089,-1.509,0,-1.5222,-1.5224,-1.5225,-1.5313,-1.5314,-1.5315,-1.5315,-1.5446,-1.5449,-1.5452,0,0,0,0,0,0,0,0,0,0,0,0,0,-1.4904,-1.4907,-1.5089,-1.509,-1.5092,-1.5222,-1.5224,-1.5226,-1.5313,-1.5314,-1.5315,-1.5316,-1.5445,-1.5448,-1.5452,0,0,0,0,0,0,0,0,0,0,0,0,0,-1.5006,-1.4908,-1.5088,-1.5152,-1.5159,-1.5222,-1.5224,-1.5226,-1.5313,-1.5314,-1.5315,-1.5316,-1.5444,-1.5448,-1.5452,-1.5461,0,0,-1.5466,-1.5468,0,0,0,0,0,0,0,0,-1.5,-1.5012,-1.5141,-1.5147,-1.5155,-1.5252,-1.5207,-1.5305,-1.5313,-1.5254,-1.5315,-1.5316,-1.538,-1.539,-1.5413,-1.5468,-1.5473,-1.5466,-1.5469,-1.5471,-1.5472,0,0,0,0,0,0,0,-1.4993,-1.5007,-1.5141,-1.5142,-1.5151,-1.5172,-1.5187,-1.5226,-1.531,-1.5259,-1.5266,-1.5281,-1.5385,-1.5408,-1.5417,-1.5475,-1.5466,-1.547,-1.5473,-1.5474,-1.5544,-1.5543,0,0,0,0,0,0,-1.4976,-1.5001,-1.5137,-1.5145,-1.5078,-1.5174,-1.5191,-1.522,-1.531,-1.5325,-1.528,-1.5285,-1.5401,-1.5411,-1.5422,-1.5437,-1.5471,-1.5475,-1.5477,-1.5544,-1.5543,-1.5543,0,0,0,0,0,0,-1.4972,-1.4988,-1.5132,-1.5075,-1.5095,-1.5177,-1.5208,-1.5222,-1.5246,-1.5326,-1.5341,-1.5289,-1.5402,-1.5415,-1.5451,-1.5443,-1.5477,-1.5481,-1.5545,-1.5544,-1.5543,-1.5469,0,0,0,0,0,0,-1.4966,-1.4986,-1.4991,-1.5075,-1.5098,-1.516,-1.5208,-1.5224,-1.5254,-1.5262,-1.5339,-1.5352,-1.5403,-1.5444,-1.5456,-1.545,-1.5484,-1.5546,-1.5545,-1.5543,-1.5472,-1.5465,-1.5459,0,0,0,0,0,-1.496,-1.4963,-1.4991,-1.5007,-1.5106,-1.516,-1.5173,-1.5233,-1.5253,-1.5258,-1.531,-1.535,-1.5443,-1.5447,-1.5461,-1.5456,-1.5547,-1.5545,-1.5544,-1.5475,-1.5467,-1.5459,0,0,0,0,0,0,-1.4874,-1.4975,-1.5007,-1.5038,-1.509,-1.5174,-1.5182,-1.5222,-1.5267,-1.5272,-1.5344,-1.536,-1.5388,-1.5427,-1.5429,-1.5469,-1.55,-1.55,-1.5443,-1.5436,-1.5429,-1.5418,-1.5488,0,0,0,0,0,-1.4859,-1.4896,-1.4982,-1.5001,-1.5026,-1.51,-1.5125,-1.5168,-1.5223,-1.5245,-1.5299,-1.535,-1.5391,-1.5416,-1.5458,-1.548,-1.5497,-1.5483,-1.5476,-1.5471,-1.5469,-1.5483,-1.5477,-1.5537,-1.5537,-1.5537,0,0,-1.4827,-1.4888,-1.4906,-1.4985,-1.5031,-1.5065,-1.5117,-1.5152,-1.5178,-1.525,-1.5287,-1.5329,-1.539,-1.5419,-1.5434,-1.5451,-1.5458,-1.5468,-1.5463,-1.5465,-1.548,-1.5475,-1.547,-1.5536,-1.5536,-1.5536,0,0,-1.4787,-1.4838,-1.4859,-1.4904,-1.4973,-1.5023,-1.5028,-1.5107,-1.5138,-1.5177,-1.5232,-1.5264,-1.5333,-1.5374,-1.5404,-1.5383,-1.5421,-1.5395,-1.5359,-1.5371,-1.5367,-1.5363,-1.5353,-1.5349,-1.5394,-1.5394,-1.5394,0,-1.4739,-1.4795,-1.4864,-1.4896,-1.4929,-1.4999,-1.502,-1.506,-1.5138,-1.5158,-1.5177,-1.5266,-1.5312,-1.5351,-1.5346,-1.5369,-1.5375,-1.5384,-1.5362,-1.5359,-1.5356,-1.5348,-1.5344,-1.539,-1.539,-1.5391,-1.5391,0,-1.4731,-1.477,-1.4778,-1.4854,-1.4889,-1.4915,-1.4986,-1.5012,-1.5053,-1.51,-1.5138,-1.5198,-1.5252,-1.5266,-1.5304,-1.531,-1.5319,-1.5349,-1.538,-1.5346,-1.5339,-1.5336,-1.5385,-1.5386,-1.5387,-1.5388,0,0,-1.4636,-1.4753,-1.4755,-1.479,-1.4873,-1.4903,-1.4933,-1.4989,-1.5009,-1.5061,-1.5086,-1.5144,-1.5174,-1.5208,-1.5252,-1.5264,-1.5241,-1.5293,-1.5296,-1.5279,-1.5249,-1.5223,-1.5218,-1.5268,-1.5268,-1.5268,-1.5243,0,-1.4607,-1.4665,-1.4729,-1.4764,-1.4799,-1.4868,-1.4894,-1.4946,-1.4992,-1.5027,-1.5077,-1.5117,-1.5154,-1.5174,-1.5189,-1.5241,-1.5235,-1.5244,-1.5289,-1.529,-1.5269,-1.5215,-1.5188,-1.5161,-1.5241,-1.5241,-1.5241,0,-1.4579,-1.463,-1.4669,-1.475,-1.4767,-1.4789,-1.4846,-1.488,-1.4941,-1.4973,-1.5013,-1.5061,-1.5094,-1.5124,-1.517,-1.5174,-1.5197,-1.5226,-1.5226,-1.523,-1.5261,-1.5215,-1.5155,-1.5149,-1.5237,-1.5238,-1.5238,0,-1.4503,-1.4582,-1.4616,-1.4644,-1.4739,-1.4753,-1.4793,-1.4855,-1.4885,-1.4935,-1.4955,-1.5007,-1.5035,-1.5074,-1.5134,-1.5151,-1.5173,-1.5208,-1.5198,-1.5196,-1.5196,-1.5195,-1.5136,-1.5217,-1.5217,-1.5217,-1.5217,0,-1.446,-1.4481,-1.4583,-1.4603,-1.4628,-1.4702,-1.4724,-1.477,-1.4825,-1.4854,-1.4918,-1.4943,-1.5024,-1.5059,-1.5107,-1.5136,-1.5149,-1.5174,-1.5186,-1.5166,-1.5163,-1.518,-1.5182,-1.5216,-1.5216,-1.5216,-1.5216,0,-1.4377,-1.4447,-1.4488,-1.4576,-1.4599,-1.4613,-1.4688,-1.4709,-1.4761,-1.4796,-1.4809,-1.4888,-1.4932,-1.4999,-1.5062,-1.5095,-1.5115,-1.5137,-1.5095,-1.5101,-1.5087,-1.5086,-1.5034,-1.503,-1.5115,-1.5114,-1.5114,0,-1.4344,-1.4361,-1.4453,-1.4478,-1.4517,-1.4557,-1.4589,-1.4663,-1.4693,-1.4766,-1.4778,-1.4828,-1.4872,-1.494,-1.5001,-1.505,-1.5071,-1.505,-1.5079,-1.5059,-1.5068,-1.5064,-1.5066,-1.5042,-1.504,-1.5039,-1.5038,0,-1.4276,-1.431,-1.4355,-1.4412,-1.4449,-1.4497,-1.4548,-1.4565,-1.465,-1.4681,-1.4729,-1.4763,-1.483,-1.4878,-1.4936,-1.4976,-1.502,-1.503,-1.503,-1.5008,-1.4982,-1.4993,-1.5073,-1.5029,-1.503,-1.5031,-1.5032,-1.5032,-1.4215,-1.4233,-1.4301,-1.4349,-1.4396,-1.4443,-1.4468,-1.4523,-1.4565,-1.4627,-1.4669,-1.4713,-1.4775,-1.4859,-1.4896,-1.4932,-1.495,-1.4951,-1.495,-1.4948,-1.494,-1.498,-1.4943,-1.4943,-1.4944,-1.4944,-1.4944,0,-1.4147,-1.4195,-1.4239,-1.431,-1.4347,-1.4391,-1.445,-1.4478,-1.4517,-1.4573,-1.4616,-1.467,-1.4718,-1.4786,-1.4838,-1.4853,-1.4875,-1.4864,-1.4861,-1.487,-1.4921,-1.4915,-1.4846,-1.4846,-1.4846,-1.4846,-1.4846,-1.4846,-1.4116,-1.415,-1.4193,-1.4251,-1.4299,-1.4346,-1.4376,-1.4419,-1.4463,-1.4522,-1.4564,-1.4609,-1.4668,-1.4726,-1.4772,-1.479,-1.4805,-1.4787,-1.4811,-1.4857,-1.4866,-1.4874,-1.4869,-1.4791,-1.4791,-1.4756,-1.4756,-1.4756]},{"header":{"parameterUnit":"m.s-1","parameterCategory":1,"la1":30.2991,"la2":30.254,"lo1":-89.0895,"lo2":-89.0444,"dy":0.0017,"dx":0.0017,"nx":28,"ny":28,"refTime":"2024-10-14T09:00:00:Z","depth":0,"parameterNumber":3,"parameterNumberName":"V-component_of_WINDS"},"data":[0,0,0,0,0,0,0,0,0,0,0,0,0,0,0,0,0,0,0,0,0,0,0,0,0,0,0,0,0,0,0,0,0,0,0,0,0,0,0,0,0,0,0,0,0,0,0,0,0,0,0,0,0,0,0,0,0,0,-2.7207,-2.7208,0,-2.7308,-2.7309,-2.7311,-2.7322,-2.7321,-2.732,-2.7319,-2.7417,-2.742,-2.7424,0,0,0,0,0,0,0,0,0,0,0,0,0,-2.7018,-2.7021,-2.7207,-2.7208,-2.7209,-2.7308,-2.731,-2.7311,-2.7322,-2.7321,-2.732,-2.7319,-2.7416,-2.742,-2.7424,0,0,0,0,0,0,0,0,0,0,0,0,0,-2.7107,-2.7022,-2.7207,-2.7227,-2.723,-2.7308,-2.731,-2.7311,-2.7322,-2.7321,-2.732,-2.7318,-2.7414,-2.7419,-2.7425,-2.7487,0,0,-2.7441,-2.7443,0,0,0,0,0,0,0,0,-2.7102,-2.7114,-2.7223,-2.7226,-2.7229,-2.7301,-2.7279,-2.737,-2.7323,-2.7287,-2.7319,-2.7317,-2.7379,-2.7387,-2.7409,-2.7492,-2.7496,-2.7441,-2.7444,-2.7447,-2.7448,0,0,0,0,0,0,0,-2.7096,-2.711,-2.7247,-2.7224,-2.7228,-2.7229,-2.7241,-2.7296,-2.734,-2.729,-2.7291,-2.7303,-2.7381,-2.7404,-2.7412,-2.7497,-2.7441,-2.7446,-2.7449,-2.7451,-2.7636,-2.7637,0,0,0,0,0,0,-2.7087,-2.7105,-2.7244,-2.725,-2.7161,-2.7234,-2.7247,-2.7279,-2.734,-2.7347,-2.7305,-2.7304,-2.7396,-2.7405,-2.7415,-2.7492,-2.7447,-2.7452,-2.7455,-2.7634,-2.7636,-2.7638,0,0,0,0,0,0,-2.7083,-2.7099,-2.724,-2.7178,-2.7196,-2.7239,-2.7276,-2.7282,-2.7306,-2.7351,-2.7358,-2.7321,-2.7395,-2.7408,-2.747,-2.7496,-2.7454,-2.7459,-2.7632,-2.7635,-2.7637,-2.7647,0,0,0,0,0,0,-2.7077,-2.7098,-2.7123,-2.7178,-2.7199,-2.7294,-2.7278,-2.7285,-2.7316,-2.7315,-2.7368,-2.7375,-2.7395,-2.7462,-2.7475,-2.7502,-2.7463,-2.763,-2.7633,-2.7636,-2.7644,-2.7649,-2.7654,0,0,0,0,0,-2.707,-2.712,-2.7124,-2.7141,-2.7232,-2.7295,-2.7307,-2.7331,-2.7318,-2.7343,-2.7372,-2.7373,-2.7491,-2.7468,-2.7483,-2.7512,-2.7628,-2.7632,-2.7636,-2.7642,-2.7648,-2.7654,0,0,0,0,0,0,-2.7065,-2.7128,-2.7133,-2.7203,-2.7244,-2.7297,-2.733,-2.7336,-2.738,-2.7378,-2.7403,-2.7415,-2.7476,-2.75,-2.7473,-2.7576,-2.7558,-2.7565,-2.7558,-2.7564,-2.7569,-2.7561,-2.7467,0,0,0,0,0,-2.7072,-2.712,-2.7172,-2.7228,-2.7249,-2.7286,-2.7314,-2.7329,-2.7372,-2.7389,-2.7422,-2.7462,-2.7508,-2.7537,-2.7582,-2.7648,-2.7659,-2.7676,-2.768,-2.7684,-2.7689,-2.7726,-2.7734,-2.7651,-2.7651,-2.7651,0,0,-2.7087,-2.7127,-2.7156,-2.7228,-2.7262,-2.731,-2.73,-2.7351,-2.7386,-2.7396,-2.7457,-2.7483,-2.7528,-2.7593,-2.7623,-2.7615,-2.7715,-2.7689,-2.7692,-2.7695,-2.7731,-2.7738,-2.7745,-2.7653,-2.7653,-2.7653,0,0,-2.7138,-2.7174,-2.7225,-2.7259,-2.7311,-2.7336,-2.7348,-2.7401,-2.7419,-2.7481,-2.7489,-2.753,-2.7609,-2.7642,-2.7668,-2.7733,-2.7736,-2.7746,-2.7771,-2.7806,-2.7812,-2.7818,-2.784,-2.7848,-2.7752,-2.7752,-2.7752,0,-2.7149,-2.7223,-2.725,-2.7301,-2.7332,-2.7346,-2.7397,-2.7428,-2.7491,-2.7511,-2.7502,-2.7602,-2.7633,-2.7705,-2.7721,-2.7743,-2.7756,-2.774,-2.781,-2.7816,-2.7822,-2.7843,-2.7851,-2.7753,-2.7753,-2.7753,-2.7753,0,-2.7234,-2.7285,-2.732,-2.7383,-2.7418,-2.7468,-2.7501,-2.7533,-2.7545,-2.757,-2.7632,-2.7671,-2.7724,-2.7742,-2.7753,-2.7816,-2.7809,-2.7805,-2.7787,-2.783,-2.7851,-2.7859,-2.7754,-2.7754,-2.7754,-2.7753,0,0,-2.7283,-2.7362,-2.7374,-2.7403,-2.7461,-2.75,-2.7551,-2.7605,-2.7632,-2.7674,-2.7717,-2.7783,-2.778,-2.781,-2.7825,-2.7856,-2.7904,-2.7847,-2.7849,-2.7856,-2.7974,-2.7977,-2.7986,-2.7906,-2.7908,-2.7909,-2.797,0,-2.7341,-2.7434,-2.746,-2.7538,-2.7585,-2.7598,-2.7642,-2.7682,-2.7707,-2.7748,-2.7774,-2.7821,-2.7813,-2.7832,-2.7863,-2.7891,-2.7928,-2.7887,-2.7944,-2.7946,-2.7932,-2.7997,-2.8,-2.8055,-2.7978,-2.798,-2.7981,0,-2.742,-2.7467,-2.755,-2.7604,-2.7624,-2.7664,-2.7715,-2.7756,-2.78,-2.7816,-2.7851,-2.7863,-2.7914,-2.7895,-2.7966,-2.7938,-2.7962,-2.798,-2.7982,-2.7988,-2.7965,-2.8003,-2.8073,-2.8081,-2.7994,-2.7993,-2.7992,0,-2.7447,-2.7531,-2.7592,-2.7616,-2.768,-2.7707,-2.7734,-2.7778,-2.7809,-2.7853,-2.7873,-2.7922,-2.7948,-2.7985,-2.801,-2.7993,-2.8078,-2.8061,-2.8091,-2.809,-2.8107,-2.8106,-2.8181,-2.8124,-2.8124,-2.8124,-2.8124,0,-2.7508,-2.7558,-2.7605,-2.7642,-2.7699,-2.7727,-2.7781,-2.7809,-2.7848,-2.7889,-2.7903,-2.7941,-2.7972,-2.8014,-2.8033,-2.8088,-2.81,-2.8113,-2.8117,-2.8111,-2.8109,-2.8127,-2.8123,-2.8126,-2.8126,-2.8125,-2.8125,0,-2.7548,-2.7581,-2.7648,-2.7704,-2.7719,-2.7758,-2.7804,-2.784,-2.7865,-2.7918,-2.7931,-2.797,-2.8021,-2.8049,-2.8111,-2.8124,-2.8185,-2.8188,-2.8171,-2.8173,-2.8201,-2.8198,-2.829,-2.8303,-2.8238,-2.8238,-2.8239,0,-2.7584,-2.7623,-2.7684,-2.7714,-2.7742,-2.779,-2.7822,-2.7852,-2.7884,-2.7939,-2.7967,-2.8019,-2.8061,-2.814,-2.8173,-2.822,-2.8224,-2.8253,-2.8231,-2.8224,-2.8223,-2.8221,-2.8224,-2.8256,-2.8257,-2.8257,-2.8258,0,-2.7645,-2.766,-2.7707,-2.776,-2.7799,-2.7841,-2.7883,-2.7907,-2.7942,-2.7978,-2.8031,-2.8064,-2.8129,-2.8179,-2.8229,-2.8255,-2.8262,-2.8265,-2.8274,-2.8268,-2.8256,-2.8263,-2.818,-2.8262,-2.8262,-2.8261,-2.8261,-2.8261,-2.7684,-2.772,-2.7768,-2.782,-2.7855,-2.7894,-2.7931,-2.7962,-2.8007,-2.8064,-2.8077,-2.8132,-2.8176,-2.8245,-2.8272,-2.8314,-2.8308,-2.8322,-2.8325,-2.8328,-2.8329,-2.8251,-2.8323,-2.8323,-2.8323,-2.8323,-2.8323,0,-2.7745,-2.7777,-2.7825,-2.7885,-2.7925,-2.7931,-2.7978,-2.801,-2.806,-2.8101,-2.8143,-2.8203,-2.8252,-2.8289,-2.8339,-2.8365,-2.8369,-2.8377,-2.8375,-2.8381,-2.8331,-2.8318,-2.8373,-2.8373,-2.8373,-2.8373,-2.8373,-2.8373,-2.7782,-2.7843,-2.7863,-2.7941,-2.7972,-2.8029,-2.8055,-2.809,-2.8123,-2.8191,-2.8232,-2.8257,-2.8296,-2.8349,-2.8393,-2.8403,-2.842,-2.8427,-2.8437,-2.8389,-2.8384,-2.8379,-2.8367,-2.8431,-2.8431,-2.8482,-2.8483,-2.8483]}]]